Flag for Portugal Weather past 2 weeks in Setúbal, Portugal

Now
63 °F

Light rain. Broken clouds.


Feels Like: 63 °F
Forecast: 61 / 66 °F
Wind: 10 mph from Southwest

Location: Lisbon Portela Airport

Current Time: May 3, 2015 at 11:15:28 AM

Latest Report: May 3, 2015 at 10:30 AM


Visibility: 6 mi

Pressure: 29.92 "Hg

Humidity: 94%

Dew point: 61 °F

Location of SetúbalLocation

Historic Weather in Setúbal — Graph

°F

Setúbal temperature yesterday

Maximum temperature yesterday: 72 °F (at 2:30 PM)
Minimum temperature yesterday: 57 °F (at 4:30 AM)
Average temperature yesterday: 63 °F

Past Weeks' High & Low Weather Summary

 TemperatureHumidityPressure
High73 °F (Apr 30, 3:00 PM)100% (Apr 23, 5:30 AM)30.21 "Hg (Apr 23, 5:30 AM)
Low48 °F (Apr 20, 4:30 AM)35% (Apr 23, 3:00 PM)29.77 "Hg (Apr 26, 5:00 AM)
Average60 °F78%30.05 "Hg
* Reported Apr 18 10:00 AM — May 3 10:00 AM, Setúbal, Weather by CustomWeather, © 2015

Note: Actual official high and low records may vary slightly from our data, if they occured in-between our weather recording intervals... More about our weather records

Advertising

Setúbal weather history for previous 24 hours

 ConditionsComfort  
Time TempWeatherWind HumidityBarometerVisibility
10:00 AM
Sun, May 3
63 °FPartly sunny.12 mph94%29.92 "Hg6 mi
9:30 AM63 °FPartly sunny.10 mph94%29.92 "HgN/A
9:00 AM63 °FScattered showers. Partly sunny.7 mph94%29.92 "HgN/A
8:30 AM63 °FPartly sunny.6 mph94%29.89 "Hg6 mi
8:00 AM61 °FPartly sunny.8 mph94%29.89 "HgN/A
7:30 AM61 °FScattered showers. Passing clouds.7 mph94%29.89 "HgN/A
7:00 AM61 °FLight rain. Passing clouds.7 mph94%29.89 "HgN/A
6:30 AM61 °FLight rain. Passing clouds.10 mph94%29.86 "HgN/A
6:00 AM61 °FLight rain. Passing clouds.6 mph94%29.86 "HgN/A
5:30 AM61 °FLight rain. Partly cloudy.12 mph94%29.89 "HgN/A
5:00 AM61 °FLight rain. Passing clouds.12 mph94%29.89 "HgN/A
4:30 AM61 °FLight rain. Passing clouds.13 mph94%29.89 "HgN/A
3:30 AM61 °FPassing clouds.8 mph94%29.89 "HgN/A
3:00 AM61 °FPassing clouds.8 mph94%29.89 "HgN/A
2:30 AM61 °FPassing clouds.9 mph94%29.89 "HgN/A
2:00 AM61 °FPassing clouds.9 mph94%29.92 "HgN/A
1:30 AM61 °FPassing clouds.9 mph88%29.92 "HgN/A
1:00 AM63 °FPassing clouds.8 mph83%29.92 "HgN/A
12:30 AM61 °FPassing clouds.6 mph88%29.92 "HgN/A
12:00 AM63 °FPassing clouds.7 mph83%29.92 "HgN/A
11:30 PM
Sat, May 2
63 °FPassing clouds.10 mph83%29.95 "HgN/A
11:00 PM63 °FPassing clouds.10 mph83%29.95 "HgN/A
10:30 PM63 °FPassing clouds.12 mph77%29.95 "HgN/A
10:00 PM63 °FPassing clouds.10 mph83%29.95 "HgN/A
9:30 PM63 °FPassing clouds.10 mph77%29.92 "HgN/A
9:00 PM63 °FScattered clouds.9 mph83%29.92 "HgN/A
8:30 PM63 °FScattered clouds.10 mph83%29.92 "HgN/A
8:00 PM63 °FPassing clouds.12 mph83%29.92 "HgN/A
7:30 PM64 °FPassing clouds.12 mph78%29.92 "HgN/A
7:00 PM66 °FPassing clouds.13 mph73%29.92 "HgN/A
6:30 PM66 °FPassing clouds.13 mph73%29.92 "HgN/A
6:00 PM68 °FPassing clouds.12 mph69%29.92 "HgN/A
5:30 PM68 °FPassing clouds.10 mph69%29.92 "HgN/A
5:00 PM68 °FPassing clouds.12 mph69%29.92 "HgN/A
4:30 PM68 °FPassing clouds.9 mph69%29.92 "HgN/A
4:00 PM68 °FPassing clouds.13 mph69%29.92 "HgN/A
3:30 PM68 °FPassing clouds.13 mph69%29.95 "HgN/A
3:00 PM70 °FPassing clouds.13 mph64%29.95 "HgN/A
2:30 PM72 °FPassing clouds.13 mph61%29.95 "HgN/A
2:00 PM68 °FPassing clouds.10 mph73%29.95 "HgN/A
1:30 PM70 °FPassing clouds.9 mph64%29.98 "HgN/A
1:00 PM68 °FPassing clouds.10 mph60%29.98 "HgN/A
12:30 PM70 °FPassing clouds.9 mph57%29.98 "HgN/A
12:00 PM68 °FPassing clouds.10 mph64%29.98 "HgN/A
11:30 AM68 °FPassing clouds.7 mph69%29.98 "HgN/A
11:00 AM68 °FPassing clouds.7 mph69%29.98 "HgN/A
Weather by CustomWeather, © 2015

See weather overviewHow to use our weather pages